Location: Milano
(45.4642°N, 9.1900°E)
Time: 15:31:05
(UTC+02:00)

ISS - Visible Passes

Search period start: 18 May 2025 00:00
Search period end: 28 May 2025 00:00
Orbit: 416 x 419 km, 51.6° (Epoch: 18 May)

Date Brightness Start Highest point End Pass type
(mag) Time Alt. Az. Time Alt. Az. Time Alt. Az.
18 May -1.7 21:27:52 10° WNW 21:30:49 27° N 21:33:46 10° ENE visible
18 May -2.5 23:04:58 10° NW 23:08:09 39° NNE 23:09:42 24° ENE visible
19 May -1.3 00:41:45 10° WNW 00:42:36 16° WNW 00:42:36 16° WNW visible
19 May -2.2 22:16:57 10° NW 22:20:01 32° NNE 22:23:05 10° ENE visible
19 May -3.0 23:53:40 10° WNW 23:56:12 47° WNW 23:56:12 47° WNW visible
20 May -1.9 21:28:51 10° NW 21:31:50 28° N 21:34:49 10° ENE visible
20 May -3.6 23:05:38 10° WNW 23:09:00 70° NNE 23:09:47 47° E visible
21 May -3.0 22:17:37 10° NW 22:20:53 49° NNE 22:23:24 16° E visible
21 May -1.9 23:54:33 10° WNW 23:56:18 23° W 23:56:18 23° W visible
22 May -2.6 21:29:33 10° NW 21:32:44 38° NNE 21:35:54 10° E visible
22 May -3.5 23:06:19 10° WNW 23:09:36 50° SW 23:09:55 48° SSW visible
23 May -3.8 22:18:11 10° WNW 22:21:33 80° SSW 22:23:33 22° SE visible
23 May -1.0 23:56:16 10° WSW 23:56:27 11° WSW 23:56:27 11° WSW visible
24 May -3.5 21:30:05 10° WNW 21:33:26 68° NNE 21:36:46 10° ESE visible
24 May -2.0 23:07:21 10° W 23:09:55 20° SW 23:10:07 20° SW visible
25 May -2.6 22:18:53 10° WNW 22:21:56 32° SW 22:23:47 18° SSE visible
27 May -1.3 22:20:21 10° WSW 22:22:03 13° SW 22:23:45 10° SSW visible
